Weather in Maleny

Australia     26°45′31″S   152°50′58″E
temp.,
°C
wind,
m/s
gust,
m/s
humid.,
%
clouds,
%
prec.,
mm/h
press.,
hPa
HPBL,
m
19 may, wed
wed1901:00+12ssw159586 0.0 1026214
04:00+11sw129822 0.0 102644
07:00+11ssw1393100 0.0 1027102
10:00+18se376316 0.0 10271117
13:00+18se356045 0.1 10251416
16:00+17se26702 0.3 1025917
19:00+12s11941 0.1 102616
22:00+12ssw118595 0.1 102731
20 may, thu
thu2001:00+13ssw127699 0.0 102562
04:00+13ssw128093 0.0 102571
07:00+13ssw138688 0.1 102697
10:00+18se266165 0.1 1026958
13:00+19se345741 0.1 10241428
16:00+17se25801 0.5 1024632
19:00+12sw11960 0.1 102616
22:00+11sw11925 0.1 102617
21 may, fri
fri2101:00+10sw119244 0.0 102525
04:00+9sw11960 0.0 102531
07:00+10sw12924 0.0 102655
10:00+18sse476011 0.0 10251282
13:00+19se465448 0.0 10231718
16:00+17se37625 0.2 10221291
19:00+14sse21073100 0.0 1024658
22:00+14s21074100 0.1 1024645
22 may, sat
sat2201:00+13ssw258145 0.0 1023242
04:00+11ssw139127 0.0 102283
07:00+13s11083100 0.0 1024561
10:00+18se396733 0.0 10241163
13:00+20se465046 0.0 10211565
16:00+18se37621 0.0 10211329
19:00+13s2109463 0.0 1023359
22:00+14s189481 0.2 1023376
23 may, sun
sun2301:00+13ssw15954 0.1 1022163
04:00+12ssw1396100 0.1 102292
07:00+13s179393 0.0 1023372
10:00+17se387922 0.2 1024890
13:00+21ese46535 0.1 10211698
16:00+17se27819 0.4 1021786
19:00+14sse210987 0.1 1023400
22:00+13s289880 0.1 1024377